Weather History for Artesia, NM

Change the Weather History Date:

Tuesday, February 12, 2013

  Actual Average Record
Temperature  
Mean Temperature 40 °F -  
Max Temperature 50 °F 61 °F 86 °F (1962)
Min Temperature 30 °F 24 °F 2 °F (1981)
Degree Days  
Heating Degree Days 25    
Moisture  
Dew Point 19 °F    
Average Humidity 44    
Maximum Humidity 70    
Minimum Humidity 29    
Precipitation  
Precipitation 0.00 in - - ()
Sea Level Pressure  
Sea Level Pressure 30.01 in    
Wind  
Wind Speed 9 mph (NNW)    
Max Wind Speed 29 mph    
Max Gust Speed 39 mph    
Visibility 10 miles    
Events Rain , Thunderstorm    
Averages and records for this station are not official NWS values.
T = Trace of Precipitation, MM = Missing Value Source: NWS Daily Summary

Daily Weather History Graph

Daily Weather History Graph

Search for Another Location

Airport:

Trip Planner

Search our weather history database for the weather conditions in past years. The results will help you decide how hot, cold, wet, or windy it might be!

Date:

Astronomy

Feb. 12, 2013 Rise Set
Actual Time 6:43 AM MST 5:40 PM MST
Civil Twilight 6:18 AM MST 6:06 PM MST
Nautical Twilight 5:49 AM MST 6:35 PM MST
Astronomical Twilight 5:20 AM MST 7:04 PM MST
Moon 7:53 AM MST 8:30 PM MST
Length of Visible Light 11h 47m
Length of Day
10h 57m
Waxing Crescent, 8% of the Moon is Illuminated
Feb 12
Waxing Crescent
Feb 17
First Quarter
Feb 25
Full
Mar 4
Last Quarter
Mar 11
New

Hourly Weather History & Observations

Time (MST) Temp. Windchill Dew Point Humidity Pressure Visibility Wind Dir Wind Speed Gust Speed Precip Events Conditions
12:15 AM 37.4 °F 32.8 °F 10.4 °F 33% 29.91 in 10.0 mi East 5.8 mph - N/A   Clear
12:35 AM 37.4 °F - 10.4 °F 33% 29.91 in 10.0 mi Calm Calm - N/A   Clear
12:55 AM 35.6 °F - 10.4 °F 35% 29.90 in 10.0 mi Calm Calm - N/A   Partly Cloudy
1:15 AM 41.0 °F 39.0 °F 10.4 °F 29% 29.91 in 10.0 mi NNW 3.5 mph - N/A   Scattered Clouds
1:35 AM 39.2 °F 35.0 °F 10.4 °F 31% 29.92 in 10.0 mi NNW 5.8 mph - N/A   Clear
1:55 AM 39.2 °F 34.2 °F 10.4 °F 31% 29.92 in 10.0 mi NW 6.9 mph - N/A Thunderstorm Clear
2:15 AM 41.0 °F 36.4 °F 10.4 °F 29% 29.92 in 10.0 mi West 6.9 mph - N/A   Scattered Clouds
2:35 AM 44.6 °F 38.4 °F 24.8 °F 46% 29.91 in 10.0 mi WSW 12.7 mph 20.7 mph N/A Rain Light Rain
2:55 AM 44.6 °F 39.7 °F 28.4 °F 53% 29.90 in 10.0 mi WSW 9.2 mph - N/A   Scattered Clouds
3:15 AM 41.0 °F 35.2 °F 28.4 °F 61% 29.91 in 10.0 mi West 9.2 mph - N/A   Scattered Clouds
3:35 AM 41.0 °F 35.8 °F 21.2 °F 45% 29.92 in 10.0 mi WNW 8.1 mph - N/A   Scattered Clouds
3:55 AM 41.0 °F 38.0 °F 17.6 °F 39% 29.92 in 10.0 mi WNW 4.6 mph - N/A   Mostly Cloudy
4:15 AM 41.0 °F 39.0 °F 17.6 °F 39% 29.90 in 10.0 mi West 3.5 mph - N/A   Mostly Cloudy
4:35 AM 39.2 °F 34.2 °F 19.4 °F 45% 29.89 in 10.0 mi West 6.9 mph - N/A   Clear
4:55 AM 37.4 °F 29.3 °F 19.4 °F 48% 29.91 in 10.0 mi West 12.7 mph - N/A   Clear
5:15 AM 35.6 °F 27.5 °F 21.2 °F 56% 29.91 in 10.0 mi West 11.5 mph - N/A   Clear
5:35 AM 35.6 °F 26.6 °F 21.2 °F 56% 29.92 in 10.0 mi West 13.8 mph - N/A   Clear
5:55 AM 35.6 °F 28.0 °F 21.2 °F 56% 29.93 in 10.0 mi WNW 10.4 mph - N/A   Clear
6:15 AM 35.6 °F 28.0 °F 19.4 °F 52% 29.94 in 10.0 mi WNW 10.4 mph - N/A   Clear
6:35 AM 35.6 °F 30.7 °F 21.2 °F 56% 29.95 in 10.0 mi NNW 5.8 mph - N/A   Clear
6:55 AM 35.6 °F 30.7 °F 21.2 °F 56% 29.96 in 10.0 mi NW 5.8 mph - N/A   Clear
7:15 AM 32.0 °F 26.4 °F 21.2 °F 64% 29.97 in 10.0 mi North 5.8 mph - N/A   Clear
7:35 AM 33.8 °F 27.0 °F 21.2 °F 60% 29.99 in 10.0 mi North 8.1 mph - N/A   Scattered Clouds
7:55 AM 35.6 °F 29.2 °F 24.8 °F 65% 30.00 in 10.0 mi NNE 8.1 mph - N/A   Partly Cloudy
8:15 AM 37.4 °F 31.4 °F 26.6 °F 65% 30.01 in 10.0 mi North 8.1 mph - N/A   Scattered Clouds
8:35 AM 37.4 °F 32.1 °F 28.4 °F 70% 30.02 in 10.0 mi NE 6.9 mph - N/A   Mostly Cloudy
8:55 AM 39.2 °F 30.8 °F 28.4 °F 65% 30.03 in 10.0 mi North 15.0 mph - N/A   Partly Cloudy
9:15 AM 41.0 °F 33.1 °F 30.2 °F 65% 30.04 in 10.0 mi North 15.0 mph - N/A   Clear
9:35 AM 41.0 °F 33.1 °F 28.4 °F 61% 30.04 in 10.0 mi North 15.0 mph 21.9 mph N/A   Clear
9:55 AM 44.6 °F 37.8 °F 26.6 °F 49% 30.04 in 10.0 mi North 15.0 mph 20.7 mph N/A   Clear
10:15 AM 46.4 °F 37.5 °F 23.0 °F 40% 30.04 in 10.0 mi North 27.6 mph 33.4 mph N/A   Clear
10:35 AM 48.2 °F - 24.8 °F 40% 30.06 in 10.0 mi NNW 28.8 mph 39.1 mph N/A   Clear
10:55 AM 48.2 °F - 24.8 °F 40% 30.06 in 10.0 mi North 25.3 mph 29.9 mph N/A   Clear
11:15 AM 46.4 °F 37.5 °F 24.8 °F 43% 30.06 in 10.0 mi North 27.6 mph 33.4 mph N/A   Partly Cloudy
11:35 AM 46.4 °F 38.3 °F 24.8 °F 43% 30.06 in 10.0 mi North 23.0 mph 29.9 mph N/A   Scattered Clouds
11:55 AM 46.4 °F 38.5 °F 26.6 °F 46% 30.05 in 10.0 mi North 21.9 mph 25.3 mph N/A   Scattered Clouds
12:15 PM 46.4 °F 39.8 °F 26.6 °F 46% 30.05 in 10.0 mi North 16.1 mph 26.5 mph N/A   Scattered Clouds
12:35 PM 48.2 °F - 26.6 °F 43% 30.04 in 10.0 mi NNE 18.4 mph 25.3 mph N/A   Mostly Cloudy
12:55 PM 48.2 °F - 23.0 °F 37% 30.03 in 10.0 mi North 17.3 mph 25.3 mph N/A   Partly Cloudy
1:15 PM 48.2 °F - 24.8 °F 40% 30.03 in 10.0 mi North 12.7 mph 26.5 mph N/A   Partly Cloudy
1:35 PM 48.2 °F - 23.0 °F 37% 30.01 in 10.0 mi North 21.9 mph 26.5 mph N/A   Partly Cloudy
1:55 PM 50.0 °F - 19.4 °F 30% 30.01 in 10.0 mi North 18.4 mph 23.0 mph N/A   Clear
2:15 PM 50.0 °F - 21.2 °F 32% 30.01 in 10.0 mi NNE 12.7 mph 25.3 mph N/A   Clear
2:35 PM 50.0 °F - 21.2 °F 32% 30.00 in 10.0 mi North 10.4 mph 19.6 mph N/A   Clear
2:55 PM 50.0 °F - 19.4 °F 30% 30.00 in 10.0 mi NNE 13.8 mph 23.0 mph N/A   Clear
3:15 PM 50.0 °F - 19.4 °F 30% 30.00 in 10.0 mi NE 12.7 mph 21.9 mph N/A   Clear
3:35 PM 50.0 °F - 19.4 °F 30% 30.00 in 10.0 mi NNE 11.5 mph - N/A   Clear
3:55 PM 50.0 °F - 19.4 °F 30% 30.01 in 10.0 mi NNE 16.1 mph - N/A   Clear
4:15 PM 50.0 °F - 19.4 °F 30% 30.01 in 10.0 mi NNE 16.1 mph - N/A   Clear
4:35 PM 50.0 °F - 19.4 °F 30% 30.02 in 10.0 mi NE 15.0 mph - N/A   Clear
4:55 PM 48.2 °F - 19.4 °F 32% 30.03 in 10.0 mi NE 10.4 mph - N/A   Clear
5:15 PM 48.2 °F - 19.4 °F 32% 30.03 in 10.0 mi NE 11.5 mph - N/A   Clear
5:35 PM 46.4 °F 42.9 °F 19.4 °F 34% 30.03 in 10.0 mi ENE 6.9 mph - N/A   Clear
5:55 PM 44.6 °F 41.4 °F 17.6 °F 34% 30.04 in 10.0 mi NE 5.8 mph - N/A   Clear
6:15 PM 41.0 °F 35.8 °F 17.6 °F 39% 30.05 in 10.0 mi NE 8.1 mph - N/A   Clear
6:35 PM 39.2 °F 35.0 °F 17.6 °F 42% 30.06 in 10.0 mi NNE 5.8 mph - N/A   Clear
7:15 PM 37.4 °F 34.9 °F 15.8 °F 41% 30.08 in 10.0 mi WNW 3.5 mph - N/A   Clear
7:35 PM 37.4 °F - 15.8 °F 41% 30.09 in 10.0 mi Calm Calm - N/A   Clear
7:55 PM 35.6 °F - 15.8 °F 44% 30.10 in 10.0 mi Calm Calm - N/A   Clear
8:15 PM 33.8 °F 28.6 °F 14.0 °F 44% 30.11 in 10.0 mi WSW 5.8 mph - N/A   Clear
8:35 PM 35.6 °F 30.7 °F 15.8 °F 44% 30.12 in 10.0 mi West 5.8 mph - N/A   Clear
8:55 PM 33.8 °F 27.7 °F 15.8 °F 48% 30.12 in 10.0 mi West 6.9 mph - N/A   Clear
9:15 PM 32.0 °F 26.4 °F 14.0 °F 48% 30.12 in 10.0 mi WNW 5.8 mph - N/A   Clear
9:35 PM 32.0 °F 27.5 °F 14.0 °F 48% 30.12 in 10.0 mi West 4.6 mph - N/A   Clear
9:55 PM 32.0 °F 26.4 °F 14.0 °F 48% 30.13 in 10.0 mi West 5.8 mph - N/A   Clear
10:15 PM 32.0 °F 27.5 °F 14.0 °F 48% 30.12 in 10.0 mi WSW 4.6 mph - N/A   Clear
10:35 PM 30.2 °F 24.3 °F 14.0 °F 51% 30.12 in 10.0 mi SW 5.8 mph - N/A   Clear
10:55 PM 30.2 °F 22.6 °F 14.0 °F 51% 30.12 in 10.0 mi WSW 8.1 mph - N/A   Clear
11:15 PM 30.2 °F 22.6 °F 12.2 °F 47% 30.12 in 10.0 mi West 8.1 mph - N/A   Clear
11:35 PM 32.0 °F 23.0 °F 8.6 °F 38% 30.12 in 10.0 mi West 11.5 mph - N/A   Clear
11:55 PM 30.2 °F 21.3 °F 5.0 °F 34% 30.13 in 10.0 mi WNW 10.4 mph - N/A   Clear